This demonstration page uses our WeatherBlox Daily Observations layout. Learn more.

Left ArrowRight Arrow

39.95238, -75.16362

Hourly Observations for June 24, 2022

Temp ( °F °C ) Dew Point ( °F °C ) Humidity (%) Winds ( mph kmh ) Pressure ( in mb ) Visibility ( mi km ) Precip ( " mm )
12:50 am 00:50 Mostly Cloudy 66 19 63 17 88 88 WSW 3 6 29.99 1016 10 16 0.00 0.00
12:54 am 00:54 Mostly Cloudy 67 19.4 62 16.7 84 84 WSW 3 6 29.99 1016 10 16 0.00 0.00
1:10 am 01:10 Mostly Cloudy 67 19.4 62 16.7 84 84 NW 5 7 29.99 1016 10 16 0.00 0.00
1:33 am 01:33 Cloudy 66 18.9 61 16.1 84 84 N 5 7 29.99 1016 10 16 0.00 0.00
1:54 am 01:54 Cloudy 65 18.3 61 16.1 87 87 NNE 3 6 29.99 1016 10 16 0.00 0.00
2:26 am 02:26 Cloudy 66 18.9 61 16.1 84 84 NNW 5 7 30.00 1016 10 16 0.00 0.00
2:47 am 02:47 Partly Cloudy 66 18.9 61 16.1 84 84 NNW 5 7 30.00 1016 10 16 0.00 0.00
2:54 am 02:54 Partly Cloudy 66 18.9 61 16.1 84 84 NNW 3 6 29.99 1016 10 16 0.00 0.00
3:54 am 03:54 Partly Cloudy 65 18.3 61 16.1 87 87 Calm 29.99 1016 10 16 0.00 0.00
4:54 am 04:54 Partly Cloudy 63 17.2 60 15.6 90 90 NE 3 6 30.01 1016 10 16 0.00 0.00
5:09 am 05:09 Partly Cloudy 63 17.2 60 15.6 90 90 N 3 6 30.01 1016 10 16 0.00 0.00
5:35 am 05:35 Mostly Cloudy 65 18.3 61 16.1 87 87 NNW 3 6 30.02 1017 10 16 0.00 0.00
5:54 am 05:54 Mostly Cloudy 65 18.3 61 16.1 87 87 N 3 6 30.02 1017 10 16 0.00 0.00
6:54 am 06:54 Cloudy 67 19.4 62 16.7 84 84 Calm 30.04 1017 8 13 0.00 0.00
7:45 am 07:45 Cloudy with Mist and Fog 67 19.4 63 17.2 87 87 ESE 6 9 30.04 1017 6 10 0.00 0.00
7:54 am 07:54 Cloudy with Mist and Fog 67 19.4 63 17.2 87 87 ESE 5 7 30.04 1017 6 10 0.00 0.00
8:54 am 08:54 Cloudy with Haze 69 20.6 62 16.7 78 78 VRB 3 6 30.05 1018 6 10 0.00 0.00
9:12 am 09:12 Mostly Cloudy 69 20.6 63 17.2 81 81 S 5 7 30.05 1018 7 11 0.00 0.00
9:47 am 09:47 Partly Cloudy 70 21.1 63 17.2 79 79 S 7 11 30.06 1018 9 14 0.00 0.00
9:54 am 09:54 Partly Cloudy 71 21.7 63 17.2 76 76 S 7 11 30.06 1018 9 14 0.00 0.00
10:41 am 10:41 Partly Cloudy 73 22.8 63 17.2 71 71 VRB 7 11 30.06 1018 10 16 0.00 0.00
10:54 am 10:54 Partly Cloudy 73 22.8 63 17.2 71 71 VRB 5 7 30.06 1018 10 16 0.00 0.00
11:54 am 11:54 Mostly Cloudy 76 24.4 62 16.7 62 62 SSW 8 13 30.06 1018 10 16 0.00 0.00
12:54 pm 12:54 Mostly Cloudy 78 25.6 63 17.2 60 60 SW 8 13 30.05 1018 10 16 0.00 0.00
1:54 pm 13:54 Partly Cloudy 80 26.7 63 17.2 56 56 SW 10 17 30.04 1017 10 16 0.00 0.00
2:54 pm 14:54 Partly Cloudy 81 27.2 62 16.7 53 53 SSW 10 17 30.03 1017 10 16 0.00 0.00
3:54 pm 15:54 Partly Cloudy 82 27.8 63 17.2 53 53 SSW 8 13 30.02 1017 10 16 0.00 0.00
4:54 pm 16:54 Partly Cloudy 83 28.3 63 17.2 51 51 SSW 9 15 30.02 1017 10 16 0.00 0.00
5:54 pm 17:54 Partly Cloudy 83 28.3 64 17.8 53 53 WSW 10 17 30.02 1017 10 16 0.00 0.00
6:54 pm 18:54 Mostly Sunny 83 28.3 64 17.8 53 53 SW 12 19 30.03 1017 10 16 0.00 0.00
7:54 pm 19:54 Mostly Sunny 81 27.2 64 17.8 57 57 SW 10 17 30.04 1017 10 16 0.00 0.00
8:54 pm 20:54 Mostly Clear 78 25.6 65 18.3 64 64 SW 12 19 30.05 1018 10 16 0.00 0.00
9:54 pm 21:54 Mostly Clear 77 25 65 18.3 66 66 SW 10 17 30.06 1018 10 16 0.00 0.00
10:54 pm 22:54 Mostly Clear 75 23.9 65 18.3 71 71 SW 7 11 30.07 1018 10 16 0.00 0.00
11:54 pm 23:54 Clear 73 22.8 65 18.3 76 76 SW 6 9 30.07 1018 10 16 0.00 0.00

Powered by AerisWeather